Eugene, OR

7:29 PM PDT on June 28, 2017 (GMT -0700)
Mahlon Sweet

Weather History for KEUG - August, 2013

Change the Weather History Date:

Tuesday, August 13, 2013

  Actual Average Record
Temperature  
Mean Temperature 67 °F 67 °F  
Max Temperature 87 °F 83 °F 104 °F (2002)
Min Temperature 47 °F 51 °F 41 °F (1949)
Degree Days  
Heating Degree Days 0 1  
Month to date heating degree days 8 13  
Since 1 June heating degree days 106 206  
Since 1 July heating degree days 14 49  
Cooling Degree Days 2 3  
Month to date cooling degree days 48 48  
Year to date cooling degree days 247 165  
Since 1 June cooling degree days 242 160  
Growing Degree Days 16 (Base 50)    
Moisture  
Dew Point 50 °F    
Average Humidity 59    
Maximum Humidity 93    
Minimum Humidity 25    
Precipitation  
Precipitation 0.00 in 0.02 in 0.44 in (1968)
Month to date precipitation T 0.16  
Year to date precipitation 9.67 25.56  
Snow  
Snow 0.00 in - - ()
Month to date snowfall 0.0  
Since 1 June snowfall 0.0  
Since 1 July snowfall 0.0  
Snow Depth 0.00 in    
Sea Level Pressure  
Sea Level Pressure 30.04 in    
Wind  
Wind Speed 3 mph (NW)    
Max Wind Speed 12 mph    
Max Gust Speed 16 mph    
Visibility 8 miles    
Events Fog    
T = Trace of Precipitation, MM = Missing Value Source: NWS Daily Summary

Daily Weather History Graph

Daily Weather History Graph

Search for Another Location

Airport or City:

Trip Planner

Search our weather history database for the weather conditions in past years. The results will help you decide how hot, cold, wet, or windy it might be!

Date:

Astronomy

Aug. 13, 2013 Rise Set
Actual Time 6:14 AM PDT 8:19 PM PDT
Civil Twilight 5:43 AM PDT 8:51 PM PDT
Nautical Twilight 5:04 AM PDT 9:30 PM PDT
Astronomical Twilight 4:21 AM PDT 10:12 PM PDT
Moon 1:32 PM PDT (8/13) 11:41 PM PDT (8/13)
Length of Visible Light 15h 08m
Length of Day
14h 05m
Waxing Crescent, 43% of the Moon is Illuminated
Aug 13
Waxing Crescent
Aug 14
First Quarter
Aug 20
Full
Aug 28
Last Quarter
Sep 5
New

Hourly Weather History & Observations

Time (PDT) Temp. Dew Point Humidity Pressure Visibility Wind Dir Wind Speed Gust Speed Precip Events Conditions
12:54 AM 54.0 °F 48.9 °F 83% 30.08 in 10.0 mi Calm Calm - N/A   Clear
1:54 AM 51.1 °F 46.9 °F 86% 30.09 in 10.0 mi Calm Calm - N/A   Clear
2:54 AM 51.1 °F 48.9 °F 92% 30.10 in 10.0 mi Calm Calm - N/A   Clear
3:54 AM 50.0 °F 46.9 °F 89% 30.10 in 10.0 mi Calm Calm - N/A   Clear
4:54 AM 48.0 °F 46.0 °F 93% 30.10 in 2.0 mi Calm Calm - N/A   Clear
4:57 AM 48.2 °F 46.4 °F 93% 30.10 in 1.2 mi Calm Calm - N/A   Clear
5:06 AM 46.4 °F 46.4 °F 100% 30.10 in 0.5 mi Calm Calm - N/A Fog Fog
5:13 AM 48.2 °F 46.4 °F 93% 30.10 in 0.5 mi Calm Calm - N/A Fog Fog
5:25 AM 50.0 °F 48.2 °F 94% 30.10 in 1.2 mi Calm Calm - N/A   Partly Cloudy
5:27 AM 50.0 °F 48.2 °F 94% 30.10 in 2.5 mi Calm Calm - N/A   Partly Cloudy
5:34 AM 48.2 °F 48.2 °F 100% 30.10 in 10.0 mi Calm Calm - N/A   Partly Cloudy
5:54 AM 50.0 °F 48.0 °F 93% 30.11 in 10.0 mi Calm Calm - N/A Fog Shallow Fog
6:54 AM 50.0 °F 48.0 °F 93% 30.11 in 10.0 mi Calm Calm - N/A Fog Shallow Fog
7:54 AM 55.0 °F 52.0 °F 89% 30.11 in 10.0 mi Calm Calm - N/A   Scattered Clouds
8:54 AM 61.0 °F 52.0 °F 72% 30.11 in 10.0 mi Calm Calm - N/A   Scattered Clouds
9:54 AM 64.9 °F 52.0 °F 63% 30.10 in 10.0 mi Variable 3.5 mph - N/A   Scattered Clouds
10:54 AM 68.0 °F 53.1 °F 59% 30.08 in 10.0 mi Variable 5.8 mph - N/A   Scattered Clouds
11:54 AM 73.4 °F 53.6 °F 50% 30.06 in 10.0 mi NNW 5.8 mph - N/A   Scattered Clouds
12:54 PM 75.2 °F 53.6 °F 47% 30.04 in 10.0 mi Variable 6.9 mph - N/A   Mostly Cloudy
1:54 PM 78.8 °F 53.6 °F 42% 30.01 in 10.0 mi NNW 8.1 mph - N/A   Mostly Cloudy
2:54 PM 82.9 °F 51.1 °F 33% 29.99 in 10.0 mi NNW 6.9 mph 16.1 mph N/A   Mostly Cloudy
3:54 PM 84.9 °F 46.9 °F 27% 29.98 in 10.0 mi NNW 9.2 mph - N/A   Mostly Cloudy
4:54 PM 86.0 °F 46.0 °F 25% 29.96 in 10.0 mi North 4.6 mph - N/A   Scattered Clouds
5:54 PM 86.0 °F 46.0 °F 25% 29.96 in 10.0 mi NE 3.5 mph - N/A   Partly Cloudy
6:54 PM 84.0 °F 46.0 °F 26% 29.94 in 10.0 mi East 4.6 mph - N/A   Scattered Clouds
7:54 PM 75.9 °F 52.0 °F 43% 29.93 in 10.0 mi Calm Calm - N/A   Scattered Clouds
8:54 PM 73.9 °F 54.0 °F 50% 29.94 in 10.0 mi West 6.9 mph - N/A   Mostly Cloudy
9:54 PM 69.1 °F 55.9 °F 63% 29.96 in 10.0 mi SW 6.9 mph - N/A   Mostly Cloudy
10:54 PM 66.0 °F 53.1 °F 63% 29.96 in 10.0 mi South 6.9 mph - N/A   Mostly Cloudy
11:54 PM 64.9 °F 52.0 °F 63% 29.98 in 10.0 mi SSW 9.2 mph - N/A   Clear